Regional Weather Roundup
Issued by NWS Grand Forks, ND

Home | Current Version | Previous Version | Text Only | Print | Product List | Glossary Off
Versions: 1 2 3 4 5 6 7 8 9 10 11 12 13 14 15 16 17 18 19 20 21 22 23 24 25 26 27 28 29 30 31 32 33 34 35 36 37 38 39 40 41 42 43 44 45 46 47 48 49 50

000
ASUS43 KFGF 301310
RWRFGF
PRAIRIE TO PINES  WEATHER ROUNDUP
NATIONAL WEATHER SERVICE EASTERN NORTH DAKOTA/GRAND FORKS ND
700 AM CST FRI JAN 30 2015

 **SATELLITE DATA USED TO AUGMENT SKY COVER AT AUTOMATED STATIONS**
 *****  WEATHER ACROSS EASTERN NORTH DAKOTA  *****

CITY           SKY/WX    TMP DP  RH WIND       PRES   REMARKS
GRAND FORKS    CLOUDY    10   4  76 S12G21    30.38F WCI  -5
GRAND FRKS AFB CLOUDY    10   3  75 S13       30.37F WCI  -6
GRAND FRKS NWS   N/A      9 N/A N/A S14         N/A  WCI  -8
DEVILS LAKE    CLOUDY    18  12  79 S13       30.23F WCI   4
FARGO          CLOUDY    12   4  70 SE10      30.43F WCI  -1
WAHPETON ARPT  CLOUDY    12   5  73 S12       30.45F WCI  -2
$$

 ***** WEATHER ACROSS CENTRAL AND WESTERN NORTH DAKOTA  *****

CITY           SKY/WX    TMP DP  RH WIND       PRES   REMARKS
BISMARCK       CLEAR     18  16  92 S7        30.23F WCI   9
MINOT          CLEAR     23  17  78 S13       30.11F WCI  11
JAMESTOWN      CLOUDY    20  16  84 S14       30.29F WCI   7
MINOT AFB      CLEAR     20  20  98 SW6       30.12F WCI  13
GARRISON         N/A     18  15  88 S7        30.16F WCI   9
WILLISTON      CLEAR     16  12  84 CALM      30.15S
DICKINSON      CLEAR     28  18  66 SW13      30.11F WCI  17
HETTINGER      CLEAR     23  16  74 SW5       30.18F WCI  17
$$

 *****  OTHER AIRPORT OBSERVATIONS IN OUR AREA  *****

CITY           SKY/WX    TMP DP  RH WIND       PRES   REMARKS
WALHALLA         N/A      9   9 100 SE12      30.31F WCI  -6
GRAFTON AIRPOR NOT AVBL
VALLEY CITY AR FLURRIES  18  18 100 S16       30.33F WCI   3
CANDO          CLOUDY    18  16  93 SE13      30.22F WCI   4
CAVALIER APRT  FAIR       9   5  85 S14G20    30.34F WCI  -8
GWINNER        SUNNY     16  16 100 SE7       30.40F WCI   6
ROLLA          CLOUDY    16  16 100 S17       30.17F WCI   0
 ***** THE ABOVE OBSERVATIONS ARE NON NWS ARE NOT QUALITY
       CONTROLLED AND MAY MIS-REPORT RAIN FOR SNOW...
$$

  *****  WEATHER ACROSS NORTHERN MINNESOTA  *****

CITY           SKY/WX    TMP DP  RH WIND       PRES   REMARKS
FLAG ISLAND    MOCLDY     1  -6  71 S14       30.38F WCI -17
WARROAD        CLEAR      1  -6  71 S7        30.39F WCI -11
ROSEAU         MOCLDY     3  -2  78 S12       30.38F WCI -13
HALLOCK        CLOUDY     7   1  78 SE16      30.36F WCI -11
THF RVR FALLS  CLOUDY     7   3  85 S8        30.39F WCI  -6
BAUDETTE       CLOUDY    -2  -7  79 S6        30.39F WCI -14
WASKISH        CLOUDY     0  -2  92 CALM      30.42F
CROOKSTON      MOCLDY     9   3  78 S12       30.42F WCI  -6
STEPHEN NDAWN    N/A      7   3  85 S13         N/A  WCI  -9
GREENBUSH NDAW   N/A      5   1  85 S12         N/A  WCI -11
$$
  *****  WEATHER ACROSS CENTRAL AND WEST MINNESOTA  *****

CITY           SKY/WX    TMP DP  RH WIND       PRES   REMARKS
FOSSTON        MOCLDY     3   0  85 S10       30.41F WCI -12
BEMIDJI        MOCLDY     2  -1  85 CALM      30.41F
PARK RAPIDS    PTCLDY     6   2  83 S3        30.42S
ELBOW LAKE     FAIR      10   5  80 SE6       30.45S WCI   0
WADENA         MOCLDY     7   1  78 CALM      30.43F
DETROIT LAKES  MOCLDY     9   5  85 S6        30.43S WCI  -1
MOORHEAD       MOCLDY    10   9  92 S9        30.45F WCI  -2
FERGUS FALLS   MOCLDY     9   3  78 S7        30.48F WCI  -3
MORRIS MN      CLOUDY    10   7  85 S6        30.46F WCI   1
STAPLES        CLOUDY     7   1  78 S5        30.45R WCI  -2
$$
  *****  WEATHER ELSEWHERE ACROSS MINNESOTA  *****

CITY           SKY/WX    TMP DP  RH WIND       PRES   REMARKS
DULUTH         CLOUDY     0  -5  79 NW5       30.43S WCI -10
INTRNTL FALLS  CLOUDY    -6 -11  79 CALM      30.44S
ELY            NOT AVBL
CLOQUET        CLOUDY     0  -4  85 NW5       30.46R WCI -10
WHEATON        CLOUDY    10   7  85 SE12      30.47F WCI  -4
BRAINERD       CLOUDY     5   1  83 S3        30.47S
HIBBING        MOCLDY    -5 -11  75 CALM      30.44R
ALEXANDRIA     MOCLDY     9   4  80 S7        30.45S WCI  -2
SAINT CLOUD    MOCLDY     9   4  80 CALM      30.49F
MINNEAPOLIS    MOCLDY    12   4  70 SE6       30.52S WCI   3
$$

  *****  WEATHER ACROSS SOUTH DAKOTA  *****

CITY           SKY/WX    TMP DP  RH WIND       PRES   REMARKS
SIOUX FALLS    PTCLDY    19  15  84 S7        30.46S WCI  10
BROOKINGS      NOT AVBL
WATERTOWN      CLOUDY    18  15  88 S13       30.40R WCI   5
HURON          CLEAR     18  15  88 SE9       30.40F WCI   7
SISSETON         N/A     14  12  92 S9        30.41F WCI   2
ABERDEEN       CLEAR     18  14  84 S12       30.37F WCI   5
MITCHELL       CLEAR     19  17  92 SE9       30.44F WCI   8
PIERRE         CLEAR     21  18  88 SE10      30.27F WCI  10
MOBRIDGE       CLEAR     21  18  88 SE12      30.24F WCI   9
RAPID CITY     MOCLDY    21  15  78 N3        30.18F
$$

  *****  SOME WEATHER IN NEARBY STATES *****

CITY           SKY/WX    TMP DP  RH WIND       PRES   REMARKS
GLASGOW MT     CLEAR     19  16  88 NW7       30.18R WCI  10
GREAT FALLS MT CLEAR     32  18  56 SW13      30.20S WCI  22
CHEYENNE WY    CLOUDY    28  23  81 W7        30.19F WCI  21
SCOTTSBLUFF NE CLOUDY    28  22  78 E7        30.23F WCI  21
OMAHA NE       PTCLDY    22  16  78 CALM      30.53S
DES MOINES IA  CLEAR     18  12  77 N3        30.55S
DAVENPORT IA   CLEAR     14   8  77 N6        30.52R WCI   5
CHICAGO IL     PTCLDY    20   8  60 N9        30.49R WCI   9
EAU CLAIRE WI  MOCLDY     6   0  76 SW3       30.52R
LA CROSSE WI   PTCLDY    13   6  74 N5        30.54S WCI   5
$$

  *****  SOME NATIONAL WEATHER *****

CITY           SKY/WX    TMP DP  RH WIND       PRES   REMARKS
LA GUARDIA NY  LGT SNOW  32  26  78 NW7       29.84S
RALEIGH NC     PTCLDY    42  25  50 VRB7      30.04R
ATLANTA GA     PTCLDY    38  25  59 N15G23    30.24R
NEW ORLEANS LA MOCLDY    48  39  71 N17       30.35R
OKLAHOMA CITY  CLOUDY    36  26  67 NE6       30.51R
ALBUQUERQUE NM FLURRIES  35  28  75 E21       30.28F WCI  24
SALT LAKE CITY CLOUDY    37  35  92 CALM      30.15F
LOS ANGELES CA LGT RAIN  62  49  62 CALM      29.92F
BOISE ID       CLEAR     29  26  89 CALM      30.28F
SEATTLE WA     PTCLDY    35  34  96 N5        30.32R FOG
$$

*** WEATHER ACROSS MANITOBA...SASKATCHEWAN AND ONTARIO ***
                ***ONTARIO***

CITY           SKY/WX    TMP DP  RH WIND       PRES   REMARKS
GERALDTON      CLEAR    -17 -22  76 W5        30.38R WCI -29
THUNDER BAY    MOCLDY   -11 -17  77 W3        30.49F
SIOUX LOOKOUT  CRYSTALS -11 -17  77 SW3       30.38F
TORONTO        MOCLDY    12   5  73 NW31G39   30.12R WCI -10
BIG TROUT LK   CLEAR    -18 -22  83 W8        30.25F WCI -37
PICKLE LAKE    CLEAR    -17 -22  76 W10       30.31F WCI -37
DRYDEN         PTCLDY    -9 -15  77 SW7       30.38F WCI -24
KENORA         PTCLDY    -8 -13  77 S9        30.36F WCI -25
$$
                *** MANITOBA***

CITY           SKY/WX    TMP DP  RH WIND       PRES   REMARKS
BRANDON        CLOUDY    14  10  85 SE7       30.19F WCI   4
DAUPHIN        CLOUDY    12   9  85 NE7       30.20F WCI   2
ISLAND LAKE    PTCLDY   -11 -17  77 S6        30.27F WCI -25
PILOT MOUND      N/A     12  10  92 S15         N/A  WCI  -4
THE PAS        FLURRIES   3   0  85 CALM      30.19S
THOMPSON       MOCLDY   -11 -17  77 W6        30.20F WCI -25
WINNIPEG       FLURRIES   5   0  78 S17       30.33F WCI -14
LYNN LAKE      CLOUDY    -9 -15  77 NW8       30.16S WCI -26
CHURCHILL      MOCLDY   -17 -24  70 W15G22    30.08F WCI -41
GILLAM         CLEAR    -18 -24  76 SW7       30.17F WCI -35
$$
                ***SASKATCHEWAN***

CITY           SKY/WX    TMP DP  RH WIND       PRES   REMARKS
ESTEVAN        NOT AVBL
KINDERSLEY     PTCLDY    12   9  85 SW6       30.19S WCI   3
LLOYDMINSTER     N/A     23  21  93 NW9       30.18R FOG     WCI  13
PRINCE ALBERT  CLOUDY     7   5  92 CALM      30.18R
REGINA         CLOUDY    12  10  92 CALM      30.14S
YORKTON        PTCLDY     9   7  92 S8        30.12F WCI  -4
N. BATTLEFORD  CLOUDY    18  16  93 NW10G17   30.21R FOG     WCI   6
LA RONGE       FLURRIES   5   0  78 NW9       30.23R WCI  -9
SASKATOON      CLEAR      7   5  92 W6        30.19S WCI  -3
SWIFT CURRENT  HVY SNOW  25  25 100 W13       30.16S VSB 1/4 WCI  13
$$
NOTE: THESE ARE AUTOMATED STATIONS WITH LIMITED QUALITY CONTROL
      "FAIR" INDICATES FEW OR NO CLOUDS BELOW 12,000 FEET WITH NO
      SIGNIFICANT WEATHER AND/OR OBSTRUCTIONS TO VISIBILITY.
      SKY/WX - SKY CONDITION AND SIGNIFICANT WEATHER.
      TMP - AIR TEMPERATURE.    DP   - DEWPOINT TEMPERATURE.
      RH  - RELATIVE HUMIDITY.  PRES - PRESSURE.
      HX  - HEAT INDEX.         WCI  - WIND CHILL INDEX.
$


USA.gov is the U.S. government's official web portal to all federal, state and local government web resources and services.